Satellite-Ground Cal/Val Region Overpasses Predictions

Prediction of Satellite NPP Overpassing Cal/Val Region: PacN

Region Location: (Latitude: 15.00, Longitude: 179.40) to (Latitude: 23.50, Longitude: 200.60).

Table of predicted overpasses for the next 14.0 days since TLE Epoch: 4/26/2021
Interval Starting Time Starting Location Ending Time Ending Location
1 04/27/2021 01:12:23 ( 19.38, 179.99) 04/27/2021 01:13:03 ( 21.73, 179.41)
2 04/27/2021 13:41:22 ( 23.46, 179.62) 04/27/2021 13:41:37 ( 22.58, 179.40)
3 05/02/2021 01:17:26 ( 15.04, 179.45) 05/02/2021 01:17:29 ( 15.21, 179.41)
